Visibility
12.1 15.0 14.9 15.0 11.1 11.8 15.0 15.0 15.0 15.0 15.0 15.0 15.0 15.0 15.0 15.0 15.0 15.0 13.3 15.0 5.1 0.0 15.0 15.0 15.0 15.0 15.0 15.0 1.1 15.0 15.0 11.6 15.0 15.0 10.8 8.3 13.7 14.6 9.0 3.3 10.3 9.6 1.1 1.6 6.0 1.0 0.1 6.5 8.2 3.6 0.0 5.0 3.4 6.0
15.0 15.0 14.7 14.4 15.0 9.9 15.0 15.0 15.0 15.0 15.0 15.0 15.0 15.0 15.0 15.0 15.0 15.0 7.3 15.0 15.0 0.1 0.2 15.0 15.0 15.0 15.0 15.0 15.0 15.0 15.0 15.0 15.0 4.2 3.0 15.0 15.0 15.0 14.6 0.8 2.4 1.4 4.5 13.9 0.0 0.1 0.0 10.0 0.1 4.2 15.0 13.9 15.0 15.0
15.0 15.0 15.0 15.0 15.0 15.0 13.7 15.0 15.0 15.0 15.0 15.0 15.0 15.0 15.0 15.0 15.0 15.0 8.7 15.0 4.5 0.0 0.6 15.0 15.0 15.0 15.0 15.0 15.0 15.0 15.0 15.0 15.0 5.7 2.7 14.5 1.9 15.0 1.3 2.1 5.8 4.7 15.0 7.8 1.3 5.0 13.4 3.1 0.0 0.0 9.9 15.0 15.0 15.0
15.0 15.0 15.0 15.0 15.0 15.0 14.9 15.0 15.0 15.0 15.0 15.0 15.0 15.0 15.0 15.0 15.0 15.0 13.5 15.0 5.2 0.0 0.7 15.0 15.0 15.0 15.0 15.0 15.0 15.0 15.0 13.5 15.0 15.0 15.0 10.9 5.5 13.9 15.0 14.9 3.4 13.7 15.0 1.6 0.5 13.4 8.8 14.2 0.0 0.0 0.1 15.0 15.0 15.0
13.5 11.3 15.0 15.0 15.0 15.0 13.2 15.0 15.0 15.0 15.0 15.0 15.0 15.0 15.0 15.0 15.0 15.0 14.1 11.6 14.1 0.8 0.0 15.0 15.0 15.0 15.0 15.0 15.0 15.0 15.0 15.0 15.0 15.0 10.7 7.0 15.0 15.0 15.0 9.6 0.2 15.0 0.7 8.9 2.7 0.9 0.0 0.0 0.0 0.0 0.1 0.4 15.0 15.0
15.0 15.0 15.0 15.0 15.0 9.9 12.6 15.0 15.0 15.0 15.0 15.0 15.0 15.0 15.0 15.0 15.0 13.3 0.6 9.5 14.9 8.0 0.0 7.4 8.2 15.0 15.0 15.0 15.0 15.0 15.0 14.0 14.9 15.0 15.0 15.0 15.0 12.6 2.3 1.3 14.6 15.0 15.0 0.6 0.0 0.0 6.0 0.0 0.0 0.0 0.2 0.3 15.0 15.0
9.8 15.0 15.0 15.0 15.0 15.0 15.0 11.6 15.0 15.0 15.0 15.0 15.0 15.0 15.0 15.0 15.0 3.2 0.1 1.5 11.2 15.0 0.0 3.1 12.3 15.0 15.0 15.0 15.0 10.5 15.0 10.2 12.6 15.0 15.0 15.0 15.0 9.2 12.3 4.8 11.5 15.0 15.0 2.7 0.0 0.0 0.1 10.2 0.2 0.0 0.0 4.0 10.2 15.0
15.0 15.0 15.0 14.8 14.2 13.4 15.0 14.6 13.7 9.4 15.0 15.0 15.0 15.0 15.0 15.0 15.0 8.0 15.0 13.3 6.8 4.2 0.1 3.8 14.7 11.7 15.0 14.1 15.0 15.0 12.6 15.0 15.0 15.0 15.0 15.0 12.2 9.7 0.3 11.6 15.0 15.0 15.0 8.6 6.8 14.6 6.1 0.2 0.2 0.3 6.1 9.9 15.0 15.0
14.2 15.0 15.0 15.0 15.0 12.6 11.3 15.0 14.0 15.0 14.3 11.7 15.0 15.0 15.0 15.0 15.0 15.0 12.3 14.9 13.9 0.1 0.0 13.0 15.0 15.0 15.0 15.0 3.5 13.7 15.0 3.5 15.0 7.1 15.0 9.2 10.0 0.6 0.3 15.0 15.0 15.0 15.0 15.0 13.4 14.9 15.0 11.2 0.2 0.2 0.3 0.6 8.6 15.0
15.0 15.0 15.0 14.8 11.5 15.0 15.0 15.0 14.8 15.0 15.0 15.0 15.0 7.4 1.7 6.8 12.3 9.6 0.1 0.0 0.0 0.0 0.0 0.3 15.0 12.0 13.4 10.1 12.4 2.7 6.8 9.5 0.8 15.0 14.9 2.7 0.1 12.2 15.0 15.0 15.0 15.0 15.0 15.0 7.9 1.0 15.0 15.0 15.0 15.0 4.6 10.2 15.0 15.0
15.0 15.0 15.0 15.0 15.0 15.0 15.0 15.0 12.0 15.0 13.9 11.7 3.0 0.1 14.3 15.0 5.3 0.0 0.0 0.0 0.0 0.0 15.0 15.0 15.0 15.0 8.2 2.2 13.3 10.4 0.0 1.7 3.8 15.0 10.9 9.1 0.2 0.2 15.0 15.0 15.0 15.0 15.0 15.0 15.0 15.0 15.0 15.0 15.0 15.0 15.0 15.0 15.0 15.0
12.8 15.0 15.0 15.0 15.0 15.0 15.0 13.2 11.9 14.4 15.0 6.4 8.7 13.5 2.2 0.0 0.1 0.0 0.0 6.4 6.2 14.7 15.0 15.0 15.0 15.0 6.0 10.9 9.3 10.7 6.3 11.3 8.0 6.8 13.3 1.6 0.2 15.0 15.0 15.0 15.0 15.0 15.0 15.0 15.0 15.0 15.0 15.0 15.0 15.0 15.0 15.0 15.0 15.0
10.1 15.0 15.0 15.0 15.0 15.0 15.0 9.3 15.0 12.4 15.0 0.1 1.2 0.0 0.0 0.0 0.0 0.5 0.3 3.2 15.0 15.0 15.0 15.0 0.2 15.0 15.0 10.9 3.2 5.1 10.8 9.1 5.3 0.3 0.3 0.3 6.8 15.0 15.0 15.0 15.0 15.0 15.0 15.0 15.0 15.0 15.0 15.0 15.0 14.4 3.0 2.5 5.9 9.4
15.0 15.0 15.0 15.0 15.0 15.0 8.5 7.6 15.0 13.0 0.1 0.0 0.0 0.1 0.0 3.4 12.1 14.3 12.1 15.0 14.9 13.6 15.0 15.0 12.7 15.0 12.5 0.2 0.1 14.5 9.0 10.6 1.8 0.1 0.2 1.5 2.9 15.0 15.0 15.0 15.0 15.0 15.0 15.0 9.1 13.0 11.4 12.1 2.8 5.2 5.8 4.5 6.4 5.2
15.0 15.0 15.0 15.0 15.0 15.0 10.1 12.3 11.6 6.9 2.1 0.0 0.0 0.1 0.4 2.0 11.0 0.2 0.0 1.8 13.1 15.0 15.0 15.0 12.3 12.3 13.7 0.2 14.9 12.4 4.1 2.4 0.5 0.6 0.5 1.6 15.0 15.0 15.0 15.0 15.0 15.0 8.4 3.8 10.7 8.8 5.8 5.2 5.7 3.2 3.5 3.9 10.5 14.7
15.0 15.0 15.0 15.0 15.0 15.0 4.6 3.3 0.6 0.1 0.0 0.1 0.2 0.1 1.1 9.7 8.6 0.1 0.0 0.0 6.6 4.9 14.2 8.1 4.5 15.0 7.9 10.6 2.0 0.3 8.6 0.1 0.4 0.7 2.9 12.7 14.0 15.0 15.0 15.0 10.3 9.6 13.8 10.6 9.9 12.9 14.5 11.9 11.7 11.0 14.5 15.0 12.3 12.8
13.0 15.0 15.0 15.0 15.0 5.7 1.3 0.0 0.0 0.0 6.7 0.2 0.6 14.8 2.1 0.1 0.1 0.9 0.0 13.7 15.0 0.1 0.0 8.7 14.8 8.0 14.4 14.9 14.8 14.5 0.7 0.7 1.4 0.6 4.0 15.0 10.9 4.1 14.9 14.9 10.7 9.0 9.5 9.0 8.0 9.6 13.7 15.0 0.3 0.3 1.0 0.5 1.1 14.3
15.0 11.6 14.5 12.6 3.8 0.1 0.0 0.0 13.9 2.4 11.9 15.0 8.3 7.0 12.6 0.3 0.5 5.8 12.7 12.4 0.4 13.1 14.0 15.0 15.0 15.0 15.0 4.2 1.3 4.0 1.0 1.8 14.8 9.8 5.8 12.6 15.0 13.8 10.6 8.6 7.7 8.9 10.8 14.7 15.0 15.0 15.0 12.0 2.5 15.0 14.7 15.0 1.3 4.1
9.6 11.1 15.0 15.0 15.0 6.0 1.6 3.0 10.0 0.7 2.1 15.0 9.1 7.9 9.3 9.5 15.0 15.0 4.6 6.4 15.0 15.0 15.0 15.0 15.0 9.9 12.4 15.0 4.3 3.4 4.9 14.2 1.6 1.5 1.5 2.4 8.9 12.5 11.7 15.0 15.0 14.3 15.0 12.0 0.6 0.6 13.8 15.0 15.0 15.0 15.0 15.0 13.4 15.0
13.5 10.1 15.0 15.0 15.0 7.6 3.5 3.9 15.0 15.0 4.3 7.4 6.4 9.5 1.2 0.7 2.7 5.0 11.8 15.0 15.0 15.0 8.6 14.3 6.3 5.0 9.8 11.6 15.0 15.0 7.4 14.0 13.4 2.6 1.0 3.7 11.0 8.3 15.0 15.0 14.2 15.0 7.0 15.0 15.0 15.0 13.8 15.0 15.0 14.8 15.0 15.0 1.5 1.6
4.1 6.6 13.3 13.1 0.0 0.5 2.0 1.4 15.0 15.0 15.0 2.1 11.4 15.0 6.5 4.5 0.2 0.2 4.0 15.0 6.1 14.8 12.4 15.0 2.3 0.4 14.4 15.0 15.0 15.0 15.0 15.0 15.0 15.0 14.9 3.8 10.5 15.0 5.5 13.8 15.0 12.3 5.4 4.3 0.3 15.0 14.9 14.8 15.0 15.0 1.3 2.6 13.4 13.8
0.1 5.4 0.0 0.1 0.1 11.8 0.4 15.0 15.0 15.0 9.5 8.3 4.8 8.6 2.2 0.6 0.8 2.2 15.0 15.0 15.0 14.8 15.0 15.0 15.0 8.5 15.0 15.0 15.0 12.8 15.0 15.0 15.0 15.0 15.0 15.0 5.3 8.6 10.1 15.0 7.2 9.9 3.8 11.9 7.2 5.8 10.2 15.0 15.0 13.5 5.2 14.5 4.0 5.7
3.7 2.1 0.2 4.5 1.5 5.7 0.4 15.0 11.0 15.0 8.4 1.6 15.0 13.9 15.0 15.0 14.9 15.0 12.6 12.7 12.3 15.0 15.0 15.0 15.0 15.0 1.1 6.3 15.0 15.0 15.0 15.0 15.0 15.0 15.0 9.0 9.1 5.4 15.0 7.3 7.1 7.9 7.3 15.0 15.0 10.5 6.1 15.0 15.0 15.0 15.0 15.0 7.0 11.5
12.6 6.3 0.1 7.0 15.0 3.9 15.0 1.4 15.0 15.0 15.0 15.0 9.0 15.0 14.9 12.6 15.0 15.0 15.0 14.4 14.1 3.0 9.1 0.5 12.6 15.0 15.0 15.0 15.0 15.0 15.0 15.0 15.0 15.0 14.1 15.0 15.0 15.0 15.0 15.0 15.0 15.0 13.0 15.0 15.0 15.0 15.0 1.0 15.0 15.0 15.0 15.0 15.0 14.5
10.1 11.9 15.0 15.0 14.9 15.0 15.0 15.0 15.0 12.9 15.0 15.0 15.0 15.0 15.0 15.0 15.0 15.0 15.0 3.5 12.2 12.7 12.1 15.0 15.0 15.0 15.0 15.0 15.0 15.0 15.0 15.0 15.0 15.0 15.0 15.0 15.0 15.0 15.0 15.0 15.0 15.0 15.0 15.0 14.8 15.0 12.1 15.0 15.0 15.0 15.0 15.0 4.8 15.0
12.1 15.0 15.0 15.0 14.2 14.3 15.0 15.0 15.0 15.0 15.0 15.0 15.0 15.0 15.0 15.0 15.0 15.0 15.0 15.0 15.0 9.8 12.9 15.0 15.0 15.0 15.0 15.0 15.0 15.0 15.0 15.0 15.0 15.0 15.0 15.0 15.0 15.0 15.0 15.0 15.0 11.1 15.0 15.0 15.0 15.0 14.4 15.0 15.0 15.0 15.0 15.0 14.9 15.0
15.0 15.0 15.0 15.0 15.0 15.0 15.0 15.0 15.0 15.0 15.0 15.0 15.0 15.0 15.0 15.0 15.0 15.0 15.0 15.0 14.4 15.0 15.0 15.0 15.0 15.0 15.0 15.0 15.0 15.0 15.0 15.0 15.0 15.0 15.0 15.0 15.0 15.0 15.0 15.0 15.0 3.0 15.0 15.0 15.0 15.0 14.1 14.5 15.0 15.0 15.0 15.0 7.0 15.0
15.0 15.0 12.9 8.0 15.0 15.0 15.0 15.0 15.0 15.0 15.0 15.0 15.0 15.0 15.0 15.0 13.4 15.0 15.0 15.0 15.0 15.0 15.0 15.0 15.0 15.0 15.0 15.0 15.0 15.0 15.0 15.0 15.0 15.0 15.0 15.0 15.0 15.0 15.0 15.0 15.0 15.0 15.0 15.0 15.0 15.0 15.0 15.0 15.0 15.0 15.0 15.0 14.0 15.0
12.5 15.0 15.0 15.0 15.0 15.0 15.0 15.0 15.0 15.0 15.0 15.0 15.0 15.0 15.0 15.0 2.8 1.4 0.2 13.4 15.0 15.0 9.8 15.0 15.0 15.0 15.0 15.0 15.0 15.0 15.0 15.0 15.0 15.0 15.0 15.0 15.0 15.0 15.0 15.0 15.0 15.0 14.9 15.0 15.0 15.0 15.0 14.5 6.9 1.3 15.0 6.4 6.8 15.0
15.0 15.0 15.0 15.0 15.0 15.0 3.8 5.9 1.6 14.8 15.0 15.0 15.0 15.0 14.8 15.0 15.0 15.0 0.1 3.0 10.9 5.0 14.8 9.7 2.4 15.0 14.0 10.8 0.7 0.8 13.1 15.0 15.0 15.0 15.0 15.0 15.0 15.0 15.0 15.0 15.0 15.0 15.0 7.2 15.0 15.0 15.0 15.0 15.0 15.0 15.0 15.0 15.0 15.0
15.0 15.0 15.0 15.0 6.7 1.7 2.3 11.0 15.0 11.5 15.0 14.5 10.9 2.5 6.5 6.5 0.8 10.3 0.1 0.4 1.5 1.4 0.4 1.5 6.4 5.8 6.9 5.5 3.9 1.9 0.3 5.5 15.0 15.0 15.0 15.0 15.0 15.0 15.0 15.0 15.0 15.0 15.0 15.0 15.0 15.0 10.3 15.0 15.0 14.4 15.0 15.0 15.0 14.1
15.0 15.0 15.0 15.0 2.6 4.9 6.9 0.3 2.3 3.3 8.5 2.8 8.2 15.0 2.5 1.2 1.5 2.5 5.7 0.2 0.2 0.9 8.1 13.3 1.0 0.6 13.0 15.0 15.0 15.0 15.0 14.6 15.0 15.0 15.0 15.0 15.0 15.0 15.0 15.0 15.0 15.0 15.0 15.0 15.0 15.0 15.0 15.0 15.0 15.0 15.0 15.0 15.0 15.0
15.0 15.0 15.0 15.0 5.9 4.2 8.1 4.2 13.7 12.8 11.2 9.7 2.3 2.2 0.3 0.2 0.3 0.5 12.5 2.5 0.1 0.1 5.6 0.5 0.1 0.2 0.4 5.0 6.6 4.9 15.0 15.0 15.0 15.0 15.0 15.0 15.0 15.0 15.0 15.0 15.0 15.0 15.0 15.0 15.0 15.0 15.0 15.0 15.0 15.0 15.0 15.0 15.0 15.0